Weather History for Logan, UT

Change the Weather History Date:

Thursday, December 12, 2013

  Actual Average Record
Temperature  
Mean Temperature 7 °F -  
Max Temperature 18 °F 33 °F 60 °F (2014)
Min Temperature -4 °F 14 °F -5 °F (1985)
Degree Days  
Heating Degree Days 58    
Moisture  
Dew Point 1 °F    
Average Humidity 81    
Maximum Humidity 88    
Minimum Humidity 68    
Precipitation  
Precipitation 0.00 in - - ()
Sea Level Pressure  
Sea Level Pressure 30.58 in    
Wind  
Wind Speed 2 mph (WSW)    
Max Wind Speed 6 mph    
Max Gust Speed -    
Visibility 6 miles    
Events      
Averages and records for this station are not official NWS values.
T = Trace of Precipitation, MM = Missing Value Source: NWS Daily Summary

Daily Weather History Graph

Daily Weather History Graph

Search for Another Location

Airport:

Trip Planner

Search our weather history database for the weather conditions in past years. The results will help you decide how hot, cold, wet, or windy it might be!

Date:

Astronomy

Dec. 12, 2013 Rise Set
Actual Time 7:45 AM MST 4:56 PM MST
Civil Twilight 7:14 AM MST 5:28 PM MST
Nautical Twilight 6:39 AM MST 6:03 PM MST
Astronomical Twilight 6:05 AM MST 6:37 PM MST
Moon 2:08 PM MST (12/12) 3:09 AM MST (12/12)
Length of Visible Light 10h 14m
Length of Day
9h 11m
Waxing Gibbous, 81% of the Moon is Illuminated
Dec 12
Waxing Gibbous
Dec 17
Full
Dec 25
Last Quarter
Jan 1
New
Jan 7
First Quarter

Hourly Weather History & Observations

Time (MST) Temp. Windchill Dew Point Humidity Pressure Visibility Wind Dir Wind Speed Gust Speed Precip Events Conditions
12:51 AM 3.0 °F -6.4 °F -0.0 °F 87% 30.71 in 6.0 mi South 4.6 mph - N/A   Clear
1:51 AM -0.0 °F - -5.1 °F 79% 30.71 in 8.0 mi Calm Calm - N/A   Clear
2:51 AM 1.0 °F - -4.0 °F 79% 30.71 in 7.0 mi Calm Calm - N/A   Clear
3:51 AM 1.0 °F - -2.9 °F 83% 30.70 in 6.0 mi Calm Calm - N/A   Clear
4:51 AM -0.0 °F - -4.0 °F 83% 30.71 in 7.0 mi Calm Calm - N/A   Clear
5:51 AM -2.9 °F -15.0 °F -7.1 °F 82% 30.71 in 7.0 mi WSW 5.8 mph - N/A   Clear
6:19 AM -4.0 °F -12.4 °F -9.0 °F 79% 30.46 in 8.0 mi North 3.5 mph - N/A   Partly Cloudy
6:51 AM -2.9 °F - -8.0 °F 79% 30.73 in 8.0 mi Calm Calm - N/A   Clear
7:51 AM 1.0 °F - -2.9 °F 83% 30.70 in 2.5 mi Calm Calm - N/A   Clear
8:06 AM 1.9 °F - -2.9 °F 80% 30.45 in 3.0 mi Calm Calm - N/A   Haze
8:51 AM 3.0 °F -4.4 °F -2.9 °F 76% 30.69 in 5.0 mi NNW 3.5 mph - N/A   Haze
9:51 AM 5.0 °F -2.1 °F -0.0 °F 80% 30.69 in 5.0 mi WSW 3.5 mph - N/A   Haze
10:51 AM 9.0 °F 2.4 °F 5.0 °F 84% 30.67 in 5.0 mi SW 3.5 mph - N/A   Clear
11:51 AM 10.9 °F - 6.1 °F 81% 30.63 in 5.0 mi Calm Calm - N/A   Haze
12:51 PM 12.9 °F - 8.1 °F 81% 30.58 in 6.0 mi Calm Calm - N/A   Haze
3:51 PM 18.0 °F 12.7 °F 9.0 °F 68% 30.47 in 9.0 mi NW 3.5 mph - N/A   Clear
4:51 PM 16.0 °F - 8.1 °F 71% 30.47 in 9.0 mi Calm Calm - N/A   Clear
5:51 PM 12.0 °F - 7.0 °F 80% 30.48 in 6.0 mi Calm Calm - N/A   Haze
6:51 PM 10.9 °F 4.7 °F 8.1 °F 88% 30.48 in 6.0 mi South 3.5 mph - N/A   Clear
7:51 PM 9.0 °F - 5.0 °F 84% 30.45 in 5.0 mi Calm Calm - N/A   Clear
8:51 PM 7.0 °F - 1.9 °F 80% 30.43 in 6.0 mi Calm Calm - N/A   Haze
9:51 PM 3.9 °F -5.3 °F -0.0 °F 84% 30.44 in 5.0 mi NW 4.6 mph - N/A   Clear
10:51 PM 6.1 °F -0.9 °F 1.9 °F 83% 30.42 in 4.0 mi SSW 3.5 mph - N/A   Clear
11:51 PM 5.0 °F - 1.9 °F 87% 30.41 in 4.0 mi Calm Calm - N/A   Clear